[[{"header":{"parameterUnit":"m.s-1","parameterCategory":1,"la1":30.2991,"la2":30.254,"lo1":-89.0895,"lo2":-89.0444,"dy":0.0017,"dx":0.0017,"nx":28,"ny":28,"refTime":"2023-08-28T09:00:00:Z","depth":0,"parameterNumber":2,"parameterNumberName":"U-component_of_WINDS"},"data":[0,0,0,0,0,0,0,0,0,0,0,0,0,0,0,0,0,0,0,0,0,0,0,0,0,0,0,0,0,0,0,0,0,0,0,0,0,0,0,0,0,0,0,0,0,0,0,0,0,0,0,0,0,0,0,0,0,0,-2.1129,-2.1129,0,-2.1078,-2.1078,-2.1077,-2.0988,-2.0987,-2.0985,-2.0983,-2.0933,-2.0933,-2.0933,0,0,0,0,0,0,0,0,0,0,0,0,0,-2.1153,-2.1153,-2.113,-2.1129,-2.1128,-2.1078,-2.1078,-2.1077,-2.0989,-2.0987,-2.0985,-2.0983,-2.0933,-2.0933,-2.0933,0,0,0,0,0,0,0,0,0,0,0,0,0,-2.1127,-2.1153,-2.113,-2.1078,-2.1073,-2.1079,-2.1078,-2.1077,-2.0989,-2.0987,-2.0984,-2.0982,-2.0933,-2.0933,-2.0933,-2.0985,0,0,-2.0934,-2.0934,0,0,0,0,0,0,0,0,-2.1128,-2.1126,-2.1086,-2.1082,-2.1076,-2.1037,-2.1067,-2.1046,-2.099,-2.1021,-2.0983,-2.098,-2.097,-2.0967,-2.0963,-2.0983,-2.0981,-2.0934,-2.0934,-2.0935,-2.0935,0,0,0,0,0,0,0,-2.113,-2.1128,-2.1109,-2.1086,-2.108,-2.1058,-2.1052,-2.1063,-2.101,-2.1018,-2.1012,-2.1007,-2.0966,-2.0963,-2.0961,-2.098,-2.0934,-2.0934,-2.0935,-2.0935,-2.1043,-2.1045,0,0,0,0,0,0,-2.114,-2.113,-2.1111,-2.1108,-2.1096,-2.106,-2.1053,-2.1052,-2.101,-2.1001,-2.1009,-2.1003,-2.0963,-2.0961,-2.0959,-2.1018,-2.0935,-2.0935,-2.0935,-2.104,-2.1043,-2.1046,0,0,0,0,0,0,-2.114,-2.1139,-2.1113,-2.1117,-2.1112,-2.1062,-2.1062,-2.1052,-2.1049,-2.1003,-2.0993,-2.1015,-2.0961,-2.0958,-2.098,-2.1015,-2.0935,-2.0935,-2.1037,-2.1041,-2.1045,-2.1136,0,0,0,0,0,0,-2.1141,-2.1139,-2.1158,-2.1118,-2.1112,-2.1134,-2.1065,-2.1053,-2.1049,-2.1041,-2.1005,-2.0997,-2.0959,-2.098,-2.098,-2.1014,-2.0936,-2.1034,-2.1039,-2.1044,-2.113,-2.1143,-2.1154,0,0,0,0,0,-2.1143,-2.1186,-2.1159,-2.1158,-2.1134,-2.1136,-2.1133,-2.1088,-2.1052,-2.1071,-2.1042,-2.0998,-2.1011,-2.0983,-2.0982,-2.1017,-2.1031,-2.1037,-2.1043,-2.1125,-2.1141,-2.1154,0,0,0,0,0,0,-2.1231,-2.1179,-2.115,-2.1181,-2.1164,-2.1121,-2.1143,-2.1106,-2.1098,-2.1091,-2.1035,-2.1028,-2.1057,-2.1039,-2.1008,-2.1066,-2.1015,-2.1021,-2.1077,-2.1091,-2.1103,-2.1107,-2.0936,0,0,0,0,0,-2.1254,-2.126,-2.1214,-2.1247,-2.124,-2.1194,-2.1193,-2.1159,-2.1139,-2.1132,-2.1104,-2.1087,-2.1087,-2.1088,-2.1086,-2.1128,-2.1119,-2.1151,-2.1163,-2.1174,-2.1179,-2.1202,-2.1216,-2.1066,-2.1066,-2.1066,0,0,-2.1302,-2.1275,-2.1281,-2.1264,-2.1246,-2.1254,-2.1188,-2.1198,-2.1204,-2.1133,-2.1152,-2.1132,-2.1109,-2.1141,-2.1154,-2.1127,-2.1219,-2.1181,-2.119,-2.119,-2.1209,-2.1223,-2.1236,-2.107,-2.107,-2.1069,0,0,-2.1393,-2.1373,-2.1398,-2.1382,-2.1357,-2.1326,-2.1333,-2.1296,-2.128,-2.1298,-2.1245,-2.1252,-2.1253,-2.1239,-2.1233,-2.1322,-2.1282,-2.1323,-2.1386,-2.1408,-2.142,-2.143,-2.1462,-2.1474,-2.1329,-2.1329,-2.1329,0,-2.1456,-2.1464,-2.1415,-2.143,-2.1424,-2.1361,-2.1387,-2.1374,-2.135,-2.1348,-2.1318,-2.132,-2.13,-2.1329,-2.1351,-2.1347,-2.1354,-2.1326,-2.1422,-2.1432,-2.144,-2.1471,-2.1483,-2.1334,-2.1334,-2.1333,-2.1333,0,-2.1543,-2.155,-2.1574,-2.1552,-2.1549,-2.1569,-2.1524,-2.1528,-2.1496,-2.1469,-2.1489,-2.1463,-2.1455,-2.146,-2.1428,-2.1485,-2.1469,-2.1432,-2.1379,-2.1461,-2.1488,-2.1499,-2.1342,-2.134,-2.1338,-2.1337,0,0,-2.1687,-2.1639,-2.1648,-2.1638,-2.1607,-2.1612,-2.163,-2.1622,-2.1627,-2.1613,-2.1627,-2.1631,-2.1596,-2.1589,-2.1556,-2.1576,-2.1649,-2.1535,-2.1534,-2.1558,-2.1711,-2.1739,-2.1753,-2.1623,-2.1625,-2.1626,-2.1713,0,-2.1771,-2.1798,-2.1756,-2.1793,-2.18,-2.1741,-2.1757,-2.1741,-2.1717,-2.172,-2.1694,-2.1697,-2.1651,-2.1647,-2.1663,-2.1636,-2.1679,-2.163,-2.1636,-2.1637,-2.1643,-2.1768,-2.1797,-2.188,-2.1723,-2.1725,-2.1726,0,-2.1872,-2.1864,-2.1902,-2.187,-2.1871,-2.1886,-2.1876,-2.1879,-2.186,-2.1842,-2.1835,-2.1796,-2.1813,-2.1763,-2.1786,-2.1753,-2.1754,-2.1742,-2.1744,-2.1742,-2.1686,-2.177,-2.1905,-2.1918,-2.1743,-2.1742,-2.174,0,-2.1974,-2.1972,-2.1994,-2.1988,-2.1951,-2.1963,-2.1948,-2.1926,-2.1925,-2.1917,-2.1916,-2.191,-2.1907,-2.1905,-2.1866,-2.1833,-2.1895,-2.1841,-2.188,-2.1882,-2.1895,-2.1895,-2.2033,-2.1897,-2.1896,-2.1896,-2.1896,0,-2.2072,-2.2098,-2.2039,-2.2054,-2.2081,-2.2033,-2.2063,-2.2042,-2.2024,-2.2034,-2.1984,-2.1994,-2.1942,-2.1948,-2.1918,-2.1943,-2.1942,-2.1928,-2.192,-2.1932,-2.1934,-2.1931,-2.1925,-2.1899,-2.1899,-2.1898,-2.1897,0,-2.2189,-2.2151,-2.2172,-2.2136,-2.2128,-2.215,-2.2119,-2.2132,-2.2105,-2.2119,-2.2119,-2.2078,-2.2082,-2.2044,-2.2041,-2.2021,-2.206,-2.2041,-2.2066,-2.206,-2.2102,-2.2099,-2.2243,-2.226,-2.2113,-2.2115,-2.2116,0,-2.2254,-2.2272,-2.2239,-2.2242,-2.223,-2.2235,-2.2233,-2.2188,-2.2189,-2.2169,-2.2185,-2.2185,-2.2182,-2.2192,-2.2163,-2.2161,-2.2142,-2.2193,-2.2141,-2.2154,-2.2143,-2.2142,-2.2144,-2.2203,-2.2205,-2.2207,-2.2208,0,-2.2373,-2.2354,-2.2353,-2.2347,-2.2347,-2.234,-2.233,-2.2335,-2.2286,-2.229,-2.2293,-2.2292,-2.2289,-2.229,-2.2283,-2.2269,-2.2231,-2.2225,-2.2234,-2.2246,-2.226,-2.2254,-2.2095,-2.2221,-2.222,-2.2219,-2.2218,-2.2218,-2.2466,-2.2481,-2.2459,-2.2461,-2.2449,-2.2441,-2.2451,-2.2426,-2.2428,-2.2422,-2.2396,-2.2405,-2.2387,-2.2373,-2.2363,-2.237,-2.2346,-2.2359,-2.2362,-2.2366,-2.2374,-2.226,-2.2369,-2.2368,-2.2368,-2.2368,-2.2367,0,-2.2583,-2.2567,-2.2569,-2.2557,-2.2559,-2.2523,-2.251,-2.2514,-2.2522,-2.2509,-2.2508,-2.2513,-2.2515,-2.2487,-2.2485,-2.2496,-2.2479,-2.2498,-2.2496,-2.2494,-2.2396,-2.2388,-2.2512,-2.2512,-2.2512,-2.2512,-2.2512,-2.2512,-2.2644,-2.2667,-2.2646,-2.2662,-2.2646,-2.2654,-2.265,-2.2643,-2.2632,-2.264,-2.2641,-2.2623,-2.2604,-2.2601,-2.2601,-2.2593,-2.2595,-2.262,-2.2606,-2.2514,-2.25,-2.2487,-2.2479,-2.262,-2.2621,-2.2703,-2.2704,-2.2704]},{"header":{"parameterUnit":"m.s-1","parameterCategory":1,"la1":30.2991,"la2":30.254,"lo1":-89.0895,"lo2":-89.0444,"dy":0.0017,"dx":0.0017,"nx":28,"ny":28,"refTime":"2023-08-28T09:00:00:Z","depth":0,"parameterNumber":3,"parameterNumberName":"V-component_of_WINDS"},"data":[0,0,0,0,0,0,0,0,0,0,0,0,0,0,0,0,0,0,0,0,0,0,0,0,0,0,0,0,0,0,0,0,0,0,0,0,0,0,0,0,0,0,0,0,0,0,0,0,0,0,0,0,0,0,0,0,0,0,2.9819,2.982,0,2.9863,2.9863,2.9864,2.9917,2.9918,2.9919,2.992,2.9961,2.9961,2.9962,0,0,0,0,0,0,0,0,0,0,0,0,0,2.9778,2.9778,2.9819,2.982,2.982,2.9863,2.9863,2.9864,2.9917,2.9918,2.9919,2.992,2.9961,2.9961,2.9962,0,0,0,0,0,0,0,0,0,0,0,0,0,2.9806,2.9778,2.9819,2.9852,2.9855,2.9862,2.9863,2.9864,2.9917,2.9918,2.992,2.9921,2.9961,2.9961,2.9962,2.9938,0,0,2.9963,2.9963,0,0,0,0,0,0,0,0,2.9804,2.9807,2.9847,2.985,2.9854,2.9886,2.9864,2.9889,2.9917,2.9894,2.992,2.9922,2.9935,2.9937,2.9943,2.994,2.9942,2.9963,2.9963,2.9963,2.9964,0,0,0,0,0,0,0,2.9802,2.9806,2.9836,2.9847,2.9851,2.9863,2.9869,2.9869,2.9906,2.9896,2.99,2.9904,2.9937,2.9942,2.9944,2.9943,2.9963,2.9963,2.9964,2.9964,2.9921,2.9919,0,0,0,0,0,0,2.9796,2.9804,2.9835,2.9838,2.9832,2.9863,2.9869,2.9874,2.9906,2.9913,2.9903,2.9907,2.9941,2.9943,2.9946,2.9918,2.9963,2.9964,2.9964,2.9922,2.992,2.9919,0,0,0,0,0,0,2.9795,2.9798,2.9833,2.9822,2.9827,2.9862,2.9868,2.9874,2.988,2.9912,2.9919,2.9902,2.9942,2.9945,2.9939,2.9921,2.9964,2.9964,2.9924,2.9922,2.992,2.9865,0,0,0,0,0,0,2.9793,2.9797,2.979,2.9821,2.9827,2.9827,2.9867,2.9874,2.9881,2.9886,2.9913,2.9918,2.9943,2.9938,2.994,2.9922,2.9965,2.9925,2.9923,2.992,2.9869,2.9861,2.9855,0,0,0,0,0,2.9792,2.9773,2.9789,2.9793,2.9819,2.9826,2.983,2.986,2.9879,2.9871,2.9892,2.9917,2.9923,2.9937,2.9939,2.9921,2.9927,2.9924,2.992,2.9872,2.9863,2.9855,0,0,0,0,0,0,2.9738,2.9777,2.9796,2.9788,2.9803,2.9835,2.9826,2.985,2.9859,2.9863,2.9899,2.9905,2.9894,2.9908,2.9923,2.9899,2.9928,2.9926,2.9891,2.9883,2.9876,2.9872,2.9965,0,0,0,0,0,2.9725,2.9729,2.9763,2.9751,2.9758,2.9791,2.9795,2.9817,2.9834,2.984,2.9861,2.9875,2.988,2.9882,2.9889,2.9871,2.9877,2.986,2.9853,2.9847,2.9844,2.9833,2.9825,2.9908,2.9908,2.9909,0,0,2.9698,2.9721,2.9721,2.9741,2.9756,2.9757,2.9796,2.9796,2.9797,2.984,2.9836,2.9851,2.9869,2.9857,2.9853,2.9868,2.9822,2.9843,2.9839,2.9838,2.9829,2.9821,2.9814,2.9906,2.9907,2.9907,0,0,2.965,2.9668,2.966,2.9673,2.9695,2.9717,2.9715,2.9743,2.9755,2.9751,2.9783,2.9784,2.9792,2.9803,2.981,2.9764,2.9787,2.9765,2.9729,2.9718,2.9711,2.9706,2.9687,2.968,2.9762,2.9762,2.9762,0,2.9614,2.9618,2.9652,2.9649,2.9656,2.9697,2.9687,2.9698,2.9721,2.9724,2.9741,2.9751,2.9766,2.9756,2.9744,2.975,2.9746,2.9761,2.971,2.9704,2.97,2.9682,2.9675,2.9759,2.9759,2.9759,2.976,0,2.9571,2.9573,2.9563,2.9584,2.959,2.9584,2.9615,2.9617,2.9638,2.9657,2.9651,2.9671,2.9681,2.9681,2.9701,2.9673,2.9681,2.9704,2.9733,2.9688,2.9672,2.9666,2.9754,2.9756,2.9756,2.9757,0,0,2.9489,2.9529,2.9524,2.9533,2.956,2.9561,2.9556,2.9567,2.9566,2.958,2.9575,2.958,2.9601,2.9608,2.963,2.9621,2.958,2.9644,2.9645,2.9629,2.9546,2.9527,2.9519,2.9596,2.9595,2.9594,2.9544,0,2.9444,2.9438,2.9468,2.9453,2.9454,2.9492,2.9487,2.9501,2.9519,2.9521,2.954,2.9542,2.9571,2.9575,2.9567,2.9586,2.9563,2.9591,2.9589,2.9588,2.9581,2.9511,2.9492,2.9443,2.9538,2.9537,2.9536,0,2.9391,2.9401,2.9387,2.9412,2.9414,2.9409,2.942,2.9422,2.9438,2.9452,2.9459,2.9484,2.9479,2.9508,2.95,2.9518,2.9519,2.9528,2.9527,2.9526,2.9558,2.9506,2.9429,2.942,2.9527,2.9528,2.9528,0,2.9329,2.9341,2.9333,2.934,2.937,2.9365,2.9377,2.9395,2.9398,2.9408,2.941,2.9418,2.9422,2.9427,2.9453,2.9472,2.944,2.9473,2.9449,2.9448,2.9439,2.9438,2.9358,2.9443,2.9443,2.9443,2.9444,0,2.9274,2.9263,2.9305,2.93,2.9288,2.9322,2.9308,2.9324,2.9339,2.9336,2.937,2.9366,2.9402,2.9401,2.9422,2.941,2.9412,2.9421,2.9426,2.9417,2.9415,2.9416,2.9419,2.9441,2.9442,2.9442,2.9443,0,2.9203,2.9232,2.9225,2.9254,2.9261,2.925,2.9274,2.9269,2.9289,2.9284,2.9285,2.9315,2.9316,2.9343,2.935,2.9363,2.9342,2.9355,2.9336,2.934,2.9313,2.9314,2.9229,2.9218,2.9312,2.9311,2.9311,0,2.9166,2.9158,2.9185,2.9186,2.9197,2.9198,2.9202,2.9234,2.9236,2.9253,2.9246,2.925,2.9255,2.9254,2.9276,2.928,2.9292,2.9261,2.9292,2.9282,2.9288,2.9287,2.9285,2.9254,2.9253,2.9252,2.9251,0,2.9094,2.9108,2.9113,2.9122,2.9125,2.9134,2.9144,2.9143,2.9178,2.9178,2.918,2.9184,2.919,2.9193,2.9201,2.9212,2.9236,2.9241,2.9236,2.9225,2.9213,2.9216,2.9316,2.9243,2.9244,2.9244,2.9245,2.9245,2.9037,2.9031,2.9049,2.9052,2.9063,2.9072,2.9068,2.9087,2.9089,2.9097,2.9116,2.9114,2.9129,2.9143,2.9151,2.9149,2.9164,2.9157,2.9154,2.9151,2.9145,2.9216,2.9151,2.9152,2.9152,2.9152,2.9152,0,2.8965,2.8978,2.8981,2.8994,2.8996,2.9021,2.9033,2.9032,2.903,2.9043,2.9047,2.9047,2.9049,2.9071,2.9075,2.9069,2.908,2.9068,2.9068,2.9069,2.9133,2.9136,2.9059,2.9059,2.9059,2.9059,2.9059,2.9059,2.8928,2.8918,2.8933,2.8928,2.8942,2.894,2.8945,2.8952,2.8962,2.8961,2.8963,2.8977,2.8992,2.8998,2.9,2.9006,2.9005,2.8989,2.8999,2.9057,2.9065,2.9074,2.9077,2.8989,2.8989,2.8936,2.8935,2.8935]}]]